QPF
0.02 0.03 0.03 0.04 0.05 0.05 0.05 0.05 0.05 0.04 0.02 0.02 0.02 0.02 0.01 0.01 0.02 0.01 0.01 0.01 0.01 0.01 0.01 0.02 0.02 0.02 0.02 0.03 0.04 0.04 0.03 0.02 0.01 0.01 0.01 0.01 0.02 0.03
0.02 0.01 0.02 0.03 0.05 0.06 0.06 0.04 0.04 0.04 0.02 0.01 0.01 0.01 0.01 0.01 0.01 0.01 0.01 0.01 0.01 0.01 0.01 0.02 0.01 0.01 0.01 0.01 0.01 0.01 0.02 0.02 0.01 0.00 0.00 0.00 0.01 0.02
0.01 0.01 0.01 0.01 0.03 0.05 0.06 0.05 0.04 0.04 0.02 0.01 0.02 0.01 0.01 0.01 0.00 0.00 0.00 0.00 0.01 0.01 0.01 0.01 0.01 0.01 0.01 0.00 0.00 0.00 0.01 0.01 0.01 0.01 0.00 0.00 0.01 0.02
0.01 0.01 0.01 0.01 0.02 0.04 0.05 0.05 0.03 0.02 0.02 0.01 0.01 0.01 0.01 0.01 0.01 0.00 0.01 0.01 0.01 0.01 0.01 0.01 0.01 0.01 0.01 0.01 0.00 0.00 0.00 0.01 0.01 0.01 0.01 0.00 0.01 0.01
0.01 0.01 0.00 0.01 0.02 0.03 0.05 0.05 0.04 0.03 0.02 0.01 0.01 0.01 0.01 0.01 0.01 0.01 0.01 0.01 0.01 0.01 0.01 0.01 0.01 0.01 0.02 0.01 0.01 0.01 0.01 0.01 0.01 0.01 0.01 0.01 0.01 0.02
0.01 0.01 0.01 0.02 0.02 0.02 0.04 0.05 0.04 0.04 0.03 0.02 0.02 0.01 0.02 0.02 0.01 0.01 0.01 0.01 0.00 0.00 0.00 0.00 0.00 0.01 0.02 0.02 0.02 0.01 0.01 0.01 0.01 0.02 0.02 0.02 0.02 0.02
0.01 0.01 0.01 0.01 0.03 0.03 0.03 0.04 0.05 0.06 0.05 0.03 0.03 0.03 0.03 0.03 0.02 0.01 0.01 0.01 0.01 0.01 0.01 0.00 0.00 0.00 0.01 0.02 0.03 0.03 0.03 0.02 0.02 0.02 0.03 0.02 0.02 0.03
0.01 0.01 0.01 0.02 0.02 0.02 0.03 0.03 0.03 0.05 0.07 0.07 0.06 0.04 0.03 0.02 0.02 0.02 0.01 0.01 0.01 0.01 0.01 0.01 0.01 0.00 0.01 0.01 0.02 0.03 0.04 0.04 0.03 0.03 0.04 0.04 0.03 0.02
0.00 0.00 0.01 0.01 0.02 0.02 0.02 0.02 0.02 0.03 0.04 0.08 0.10 0.07 0.04 0.02 0.03 0.02 0.02 0.01 0.01 0.01 0.01 0.01 0.01 0.01 0.00 0.01 0.01 0.02 0.03 0.04 0.05 0.04 0.04 0.04 0.03 0.02
0.01 0.01 0.01 0.01 0.01 0.02 0.02 0.02 0.02 0.02 0.03 0.03 0.05 0.04 0.04 0.04 0.04 0.03 0.03 0.02 0.02 0.01 0.01 0.01 0.00 0.00 0.00 0.01 0.01 0.01 0.01 0.02 0.04 0.05 0.04 0.03 0.02 0.02
0.02 0.01 0.01 0.02 0.03 0.03 0.03 0.02 0.02 0.02 0.03 0.03 0.02 0.03 0.03 0.04 0.04 0.04 0.04 0.04 0.02 0.01 0.01 0.01 0.00 0.00 0.00 0.00 0.01 0.01 0.01 0.01 0.02 0.03 0.03 0.03 0.02 0.02
0.03 0.03 0.04 0.04 0.05 0.05 0.04 0.04 0.03 0.02 0.03 0.03 0.02 0.02 0.02 0.03 0.03 0.03 0.04 0.04 0.03 0.02 0.01 0.01 0.01 0.01 0.01 0.01 0.01 0.01 0.01 0.01 0.01 0.02 0.03 0.03 0.02 0.02
0.02 0.03 0.04 0.05 0.05 0.05 0.05 0.04 0.04 0.04 0.04 0.04 0.03 0.03 0.02 0.02 0.02 0.03 0.04 0.04 0.04 0.03 0.02 0.02 0.02 0.02 0.01 0.01 0.01 0.01 0.01 0.01 0.01 0.01 0.02 0.02 0.02 0.02
0.02 0.03 0.02 0.02 0.03 0.03 0.04 0.04 0.05 0.05 0.04 0.04 0.04 0.03 0.03 0.03 0.03 0.03 0.04 0.05 0.05 0.05 0.04 0.04 0.04 0.03 0.02 0.02 0.01 0.01 0.01 0.01 0.01 0.01 0.01 0.02 0.02 0.02
0.02 0.03 0.03 0.02 0.02 0.01 0.02 0.02 0.03 0.03 0.03 0.04 0.04 0.03 0.03 0.03 0.03 0.04 0.04 0.05 0.07 0.07 0.07 0.06 0.05 0.05 0.04 0.03 0.01 0.01 0.01 0.01 0.01 0.01 0.01 0.01 0.02 0.02
0.01 0.02 0.02 0.02 0.01 0.01 0.01 0.01 0.01 0.01 0.02 0.04 0.05 0.05 0.05 0.05 0.05 0.05 0.05 0.05 0.05 0.05 0.05 0.04 0.04 0.03 0.03 0.02 0.02 0.01 0.01 0.01 0.01 0.02 0.02 0.03 0.04 0.05
0.02 0.01 0.01 0.01 0.01 0.00 0.01 0.01 0.00 0.01 0.01 0.02 0.02 0.03 0.04 0.04 0.04 0.04 0.05 0.06 0.06 0.05 0.04 0.04 0.04 0.03 0.03 0.03 0.03 0.03 0.02 0.02 0.03 0.04 0.05 0.05 0.06 0.07
0.04 0.03 0.03 0.02 0.02 0.01 0.01 0.01 0.01 0.01 0.01 0.01 0.02 0.03 0.04 0.03 0.03 0.04 0.05 0.06 0.06 0.05 0.05 0.05 0.05 0.05 0.04 0.03 0.03 0.03 0.02 0.02 0.02 0.02 0.03 0.04 0.05 0.05
0.04 0.04 0.03 0.03 0.03 0.02 0.01 0.01 0.01 0.01 0.01 0.01 0.02 0.03 0.04 0.05 0.05 0.05 0.06 0.06 0.06 0.05 0.05 0.05 0.06 0.08 0.07 0.05 0.03 0.02 0.02 0.02 0.02 0.02 0.03 0.04 0.04 0.04
0.04 0.03 0.03 0.03 0.03 0.02 0.02 0.02 0.02 0.02 0.02 0.02 0.03 0.03 0.04 0.04 0.05 0.06 0.07 0.06 0.06 0.05 0.05 0.06 0.07 0.08 0.08 0.07 0.05 0.03 0.03 0.03 0.03 0.03 0.03 0.04 0.05 0.06
0.03 0.03 0.02 0.02 0.02 0.03 0.03 0.03 0.03 0.04 0.04 0.04 0.05 0.05 0.05 0.05 0.07 0.07 0.08 0.10 0.08 0.06 0.06 0.06 0.07 0.09 0.09 0.09 0.08 0.07 0.06 0.06 0.05 0.04 0.04 0.05 0.05 0.06
0.03 0.03 0.02 0.02 0.02 0.03 0.04 0.03 0.04 0.04 0.04 0.04 0.04 0.04 0.05 0.05 0.06 0.07 0.08 0.10 0.12 0.09 0.07 0.05 0.05 0.05 0.06 0.06 0.06 0.05 0.05 0.05 0.06 0.07 0.07 0.06 0.06 0.07
0.03 0.03 0.03 0.02 0.02 0.02 0.03 0.03 0.04 0.04 0.04 0.04 0.04 0.03 0.03 0.04 0.05 0.06 0.07 0.09 0.11 0.12 0.10 0.07 0.06 0.05 0.05 0.04 0.03 0.03 0.03 0.04 0.04 0.05 0.06 0.06 0.05 0.04
MSLP
1017.49 1017.75 1018.03 1018.31 1018.59 1018.83 1019.02 1019.14 1019.20 1019.18 1019.10 1018.97 1018.80 1018.61 1018.42 1018.23 1018.05 1017.87 1017.70 1017.53 1017.37 1017.21 1017.07 1016.95 1016.86 1016.80 1016.79 1016.82 1016.87 1016.92 1016.97 1016.96 1016.90 1016.75 1016.52 1016.22 1015.88 1015.53
1017.55 1017.78 1018.02 1018.26 1018.49 1018.70 1018.87 1019.00 1019.08 1019.09 1019.06 1018.99 1018.88 1018.74 1018.59 1018.43 1018.26 1018.07 1017.88 1017.67 1017.46 1017.25 1017.05 1016.88 1016.74 1016.66 1016.62 1016.64 1016.69 1016.75 1016.79 1016.80 1016.73 1016.58 1016.34 1016.02 1015.65 1015.28
1017.55 1017.76 1017.97 1018.17 1018.37 1018.56 1018.72 1018.86 1018.97 1019.03 1019.06 1019.06 1019.03 1018.96 1018.87 1018.75 1018.60 1018.42 1018.21 1017.97 1017.71 1017.44 1017.18 1016.94 1016.75 1016.61 1016.53 1016.51 1016.55 1016.60 1016.65 1016.66 1016.61 1016.48 1016.26 1015.96 1015.61 1015.26
1017.45 1017.65 1017.84 1018.02 1018.21 1018.38 1018.56 1018.71 1018.86 1018.98 1019.08 1019.15 1019.19 1019.21 1019.19 1019.12 1019.02 1018.86 1018.65 1018.39 1018.10 1017.78 1017.45 1017.14 1016.88 1016.67 1016.54 1016.47 1016.47 1016.50 1016.55 1016.57 1016.55 1016.45 1016.28 1016.03 1015.74 1015.45
1017.21 1017.42 1017.61 1017.79 1017.98 1018.16 1018.35 1018.54 1018.73 1018.90 1019.07 1019.21 1019.33 1019.42 1019.47 1019.47 1019.42 1019.30 1019.11 1018.86 1018.55 1018.20 1017.83 1017.46 1017.13 1016.86 1016.65 1016.53 1016.48 1016.48 1016.51 1016.54 1016.54 1016.49 1016.37 1016.20 1015.99 1015.76
1016.85 1017.07 1017.28 1017.48 1017.68 1017.89 1018.11 1018.33 1018.56 1018.78 1019.00 1019.20 1019.38 1019.54 1019.65 1019.72 1019.72 1019.66 1019.51 1019.29 1019.00 1018.65 1018.27 1017.87 1017.49 1017.16 1016.89 1016.70 1016.58 1016.54 1016.54 1016.56 1016.58 1016.56 1016.51 1016.41 1016.28 1016.13
1016.38 1016.63 1016.86 1017.09 1017.33 1017.57 1017.82 1018.08 1018.34 1018.60 1018.85 1019.09 1019.32 1019.52 1019.68 1019.81 1019.87 1019.87 1019.80 1019.64 1019.40 1019.08 1018.72 1018.32 1017.92 1017.55 1017.22 1016.97 1016.79 1016.69 1016.64 1016.63 1016.65 1016.65 1016.64 1016.60 1016.54 1016.46
1015.83 1016.11 1016.38 1016.65 1016.93 1017.22 1017.51 1017.80 1018.09 1018.37 1018.64 1018.90 1019.14 1019.36 1019.56 1019.73 1019.85 1019.92 1019.93 1019.85 1019.69 1019.44 1019.13 1018.76 1018.37 1017.99 1017.63 1017.32 1017.08 1016.91 1016.81 1016.75 1016.74 1016.74 1016.74 1016.74 1016.72 1016.70
1015.24 1015.56 1015.88 1016.21 1016.53 1016.87 1017.20 1017.52 1017.83 1018.12 1018.39 1018.64 1018.87 1019.10 1019.31 1019.51 1019.68 1019.82 1019.91 1019.92 1019.86 1019.70 1019.47 1019.17 1018.81 1018.44 1018.06 1017.72 1017.42 1017.19 1017.02 1016.91 1016.85 1016.82 1016.81 1016.80 1016.80 1016.80
1014.67 1015.03 1015.40 1015.78 1016.16 1016.54 1016.91 1017.27 1017.59 1017.88 1018.13 1018.37 1018.58 1018.80 1019.00 1019.22 1019.42 1019.61 1019.77 1019.88 1019.91 1019.86 1019.72 1019.49 1019.20 1018.85 1018.49 1018.13 1017.79 1017.50 1017.27 1017.10 1016.98 1016.90 1016.85 1016.82 1016.80 1016.79
1014.15 1014.56 1014.97 1015.40 1015.83 1016.26 1016.68 1017.06 1017.39 1017.68 1017.93 1018.14 1018.33 1018.52 1018.72 1018.92 1019.14 1019.37 1019.58 1019.76 1019.87 1019.92 1019.87 1019.73 1019.50 1019.21 1018.87 1018.50 1018.15 1017.82 1017.54 1017.31 1017.12 1016.99 1016.88 1016.81 1016.75 1016.71
1013.73 1014.17 1014.63 1015.10 1015.58 1016.05 1016.50 1016.91 1017.27 1017.56 1017.81 1018.00 1018.17 1018.34 1018.51 1018.70 1018.92 1019.16 1019.40 1019.62 1019.80 1019.91 1019.94 1019.87 1019.71 1019.47 1019.17 1018.82 1018.47 1018.12 1017.81 1017.53 1017.29 1017.10 1016.94 1016.81 1016.71 1016.61
1013.45 1013.91 1014.39 1014.89 1015.40 1015.90 1016.39 1016.83 1017.21 1017.52 1017.77 1017.97 1018.13 1018.28 1018.43 1018.61 1018.81 1019.04 1019.29 1019.53 1019.74 1019.89 1019.96 1019.95 1019.84 1019.65 1019.39 1019.07 1018.73 1018.39 1018.06 1017.75 1017.48 1017.25 1017.04 1016.86 1016.70 1016.55
1013.33 1013.79 1014.28 1014.78 1015.31 1015.83 1016.34 1016.81 1017.22 1017.56 1017.83 1018.05 1018.22 1018.36 1018.51 1018.67 1018.85 1019.07 1019.29 1019.52 1019.73 1019.89 1019.98 1019.99 1019.92 1019.76 1019.54 1019.26 1018.94 1018.61 1018.28 1017.97 1017.68 1017.42 1017.17 1016.95 1016.73 1016.53
1013.40 1013.84 1014.30 1014.79 1015.31 1015.84 1016.36 1016.85 1017.29 1017.67 1017.98 1018.23 1018.43 1018.59 1018.74 1018.89 1019.06 1019.25 1019.44 1019.64 1019.82 1019.96 1020.04 1020.05 1019.99 1019.85 1019.65 1019.40 1019.11 1018.80 1018.48 1018.18 1017.88 1017.60 1017.32 1017.06 1016.80 1016.55
1013.67 1014.07 1014.48 1014.94 1015.43 1015.95 1016.47 1016.97 1017.44 1017.86 1018.21 1018.51 1018.75 1018.94 1019.12 1019.28 1019.43 1019.60 1019.76 1019.91 1020.04 1020.14 1020.19 1020.18 1020.10 1019.96 1019.77 1019.53 1019.25 1018.96 1018.66 1018.36 1018.06 1017.76 1017.46 1017.17 1016.87 1016.57
1014.14 1014.47 1014.83 1015.23 1015.68 1016.17 1016.67 1017.18 1017.67 1018.12 1018.52 1018.88 1019.17 1019.41 1019.62 1019.80 1019.96 1020.10 1020.23 1020.34 1020.42 1020.47 1020.46 1020.41 1020.30 1020.14 1019.93 1019.68 1019.41 1019.12 1018.81 1018.51 1018.19 1017.88 1017.56 1017.23 1016.89 1016.54
1014.79 1015.05 1015.35 1015.69 1016.08 1016.53 1017.01 1017.51 1018.01 1018.49 1018.93 1019.34 1019.68 1019.98 1020.23 1020.44 1020.61 1020.75 1020.85 1020.92 1020.95 1020.94 1020.88 1020.77 1020.61 1020.40 1020.16 1019.89 1019.59 1019.28 1018.95 1018.62 1018.28 1017.93 1017.57 1017.20 1016.82 1016.42
1015.58 1015.79 1016.02 1016.30 1016.64 1017.03 1017.48 1017.96 1018.46 1018.96 1019.44 1019.88 1020.28 1020.62 1020.91 1021.15 1021.34 1021.48 1021.56 1021.60 1021.58 1021.52 1021.40 1021.23 1021.01 1020.75 1020.46 1020.14 1019.79 1019.44 1019.07 1018.69 1018.30 1017.91 1017.50 1017.07 1016.64 1016.19
1016.48 1016.63 1016.81 1017.04 1017.33 1017.69 1018.10 1018.55 1019.04 1019.53 1020.02 1020.49 1020.91 1021.29 1021.61 1021.87 1022.07 1022.21 1022.29 1022.30 1022.25 1022.14 1021.97 1021.74 1021.46 1021.14 1020.79 1020.40 1020.00 1019.58 1019.15 1018.71 1018.26 1017.80 1017.33 1016.85 1016.36 1015.86
1017.41 1017.54 1017.69 1017.88 1018.14 1018.45 1018.82 1019.24 1019.70 1020.18 1020.66 1021.12 1021.55 1021.94 1022.27 1022.54 1022.74 1022.88 1022.94 1022.93 1022.85 1022.70 1022.48 1022.21 1021.87 1021.49 1021.08 1020.63 1020.16 1019.67 1019.17 1018.67 1018.15 1017.63 1017.10 1016.56 1016.01 1015.46
1018.33 1018.44 1018.58 1018.76 1018.98 1019.27 1019.60 1019.99 1020.41 1020.85 1021.29 1021.72 1022.13 1022.49 1022.81 1023.06 1023.25 1023.37 1023.42 1023.39 1023.29 1023.11 1022.85 1022.54 1022.16 1021.73 1021.26 1020.76 1020.23 1019.68 1019.12 1018.56 1017.98 1017.40 1016.82 1016.23 1015.64 1015.04
1019.18 1019.29 1019.43 1019.60 1019.82 1020.07 1020.37 1020.71 1021.08 1021.46 1021.85 1022.23 1022.58 1022.90 1023.17 1023.39 1023.54 1023.64 1023.66 1023.61 1023.48 1023.28 1023.00 1022.66 1022.25 1021.79 1021.28 1020.74 1020.17 1019.58 1018.98 1018.37 1017.76 1017.14 1016.53 1015.91 1015.28 1014.66
Thickness
5696 5696 5695 5694 5694 5694 5693 5692 5688 5684 5685 5687 5689 5691 5690 5691 5691 5690 5690 5690 5690 5689 5688 5688 5687 5687 5686 5685 5685 5684 5683 5682 5680 5679 5678 5678 5677 5676
5692 5692 5691 5691 5691 5691 5690 5689 5688 5686 5683 5685 5685 5686 5687 5687 5687 5686 5686 5686 5686 5685 5685 5684 5683 5683 5682 5682 5681 5680 5679 5678 5676 5675 5675 5675 5674 5673
5688 5688 5688 5688 5687 5687 5686 5685 5683 5682 5680 5681 5681 5682 5682 5682 5682 5682 5682 5682 5682 5682 5681 5680 5680 5679 5678 5678 5677 5676 5675 5674 5673 5672 5672 5671 5670 5670
5684 5684 5683 5683 5683 5682 5681 5680 5679 5679 5678 5677 5677 5677 5678 5678 5678 5677 5677 5678 5678 5678 5677 5677 5676 5675 5674 5673 5672 5672 5671 5670 5669 5668 5667 5667 5666 5665
5680 5679 5679 5678 5678 5677 5677 5676 5675 5674 5673 5673 5673 5672 5672 5672 5672 5672 5672 5672 5673 5673 5673 5672 5671 5671 5670 5669 5668 5667 5667 5666 5665 5664 5663 5662 5661 5660
5676 5676 5675 5675 5674 5673 5673 5671 5670 5669 5668 5667 5668 5668 5667 5667 5666 5666 5666 5667 5667 5668 5667 5667 5667 5666 5665 5665 5664 5663 5662 5661 5660 5659 5658 5657 5655 5654
5672 5672 5672 5672 5671 5670 5669 5667 5666 5664 5663 5662 5662 5662 5661 5660 5660 5660 5660 5660 5661 5661 5661 5662 5662 5661 5660 5659 5659 5658 5657 5656 5655 5654 5653 5651 5650 5649
5667 5667 5667 5667 5666 5666 5665 5664 5663 5660 5659 5657 5657 5656 5656 5655 5654 5653 5653 5653 5655 5657 5655 5656 5656 5656 5655 5655 5654 5653 5652 5651 5650 5649 5648 5646 5645 5644
5662 5662 5662 5662 5661 5660 5660 5659 5658 5657 5656 5655 5653 5653 5652 5652 5650 5649 5648 5648 5649 5650 5648 5650 5650 5650 5650 5650 5650 5649 5647 5646 5645 5643 5642 5641 5640 5639
5657 5656 5656 5656 5655 5654 5654 5653 5652 5652 5652 5651 5650 5650 5649 5648 5646 5646 5644 5643 5643 5642 5641 5642 5644 5644 5645 5644 5644 5643 5642 5641 5640 5638 5637 5636 5635 5634
5651 5651 5650 5650 5649 5648 5648 5646 5646 5647 5646 5646 5645 5645 5644 5643 5640 5638 5636 5636 5637 5637 5636 5636 5638 5637 5638 5638 5638 5637 5636 5635 5634 5633 5632 5631 5630 5629
5645 5644 5644 5643 5642 5642 5641 5640 5640 5640 5640 5639 5639 5638 5637 5636 5635 5633 5632 5631 5631 5631 5631 5629 5630 5629 5631 5632 5631 5631 5630 5629 5628 5628 5627 5626 5625 5623
5638 5638 5637 5636 5635 5634 5634 5634 5633 5633 5633 5632 5632 5632 5631 5630 5629 5628 5627 5626 5626 5626 5627 5623 5623 5622 5622 5624 5624 5623 5623 5623 5622 5621 5621 5620 5619 5618
5632 5631 5630 5630 5629 5628 5627 5627 5626 5626 5625 5625 5625 5624 5624 5624 5623 5623 5622 5621 5620 5620 5620 5617 5617 5616 5615 5615 5616 5617 5616 5616 5615 5615 5615 5614 5613 5612
5625 5624 5624 5623 5623 5622 5621 5619 5618 5618 5618 5617 5617 5617 5617 5617 5616 5616 5615 5614 5614 5613 5612 5611 5610 5610 5608 5608 5608 5608 5609 5609 5609 5609 5609 5608 5608 5607
5617 5616 5616 5615 5615 5614 5613 5612 5611 5610 5610 5610 5610 5609 5609 5609 5608 5608 5607 5607 5606 5607 5605 5604 5603 5603 5602 5601 5600 5601 5601 5601 5602 5602 5601 5602 5602 5602
5609 5608 5608 5608 5608 5607 5606 5604 5603 5602 5602 5602 5601 5601 5601 5601 5601 5600 5599 5599 5598 5599 5598 5597 5596 5595 5594 5593 5593 5594 5594 5595 5595 5595 5594 5595 5597 5597
5601 5601 5601 5600 5599 5599 5598 5597 5596 5595 5594 5594 5593 5593 5593 5593 5593 5592 5591 5591 5590 5590 5590 5589 5588 5587 5586 5586 5586 5587 5588 5588 5588 5587 5587 5588 5590 5592
5594 5594 5593 5592 5592 5591 5590 5590 5589 5588 5586 5586 5585 5585 5585 5585 5585 5584 5583 5582 5582 5581 5581 5580 5579 5579 5580 5581 5582 5579 5579 5580 5580 5580 5580 5581 5583 5586
5586 5586 5585 5585 5584 5583 5583 5582 5581 5580 5579 5578 5578 5577 5577 5576 5576 5576 5575 5574 5574 5573 5572 5572 5571 5571 5571 5572 5573 5573 5571 5571 5572 5573 5573 5573 5575 5577
5580 5579 5578 5578 5577 5576 5576 5575 5574 5573 5572 5571 5570 5570 5569 5569 5568 5568 5568 5566 5566 5566 5565 5565 5563 5562 5562 5562 5563 5566 5565 5564 5565 5565 5565 5566 5568 5570
5574 5573 5572 5571 5570 5569 5568 5567 5566 5566 5565 5563 5563 5563 5562 5562 5561 5561 5561 5561 5560 5559 5557 5557 5556 5555 5555 5556 5557 5558 5558 5558 5557 5557 5558 5560 5561 5564
5567 5566 5565 5564 5563 5562 5561 5560 5559 5558 5557 5556 5555 5555 5555 5554 5554 5554 5553 5553 5552 5551 5551 5550 5550 5549 5549 5549 5549 5550 5550 5550 5551 5551 5552 5553 5554 5555